RH
10 13 17 15 14 13 13 15 18 19 20 20 21 21 20 18 17 19 26 35 40 36 35 38 41 42 44 56 55 40 40 43 38 41 44 41 43 43 40 36 27 16 14 17 17 16 17 20 20 19 17 18 24 25 20 16 13 14 21 32 36 38 48 55 56 51 40 36 36 41 50 49 49 50 46 50 51 44 46 51 51 53 55 49 51 56
13 13 15 14 13 13 13 14 16 18 19 20 21 20 20 20 18 19 29 42 45 35 33 38 41 43 43 52 57 45 37 41 39 36 37 37 41 40 36 33 32 26 20 19 18 17 17 18 19 19 17 18 22 21 16 13 12 14 22 35 41 44 51 50 51 49 39 38 43 47 59 59 49 51 51 47 50 51 47 47 54 59 57 58 68 69
16 14 13 12 12 12 12 13 14 17 19 20 20 19 19 20 19 24 34 45 45 35 32 38 41 43 44 46 53 46 34 36 38 36 34 32 36 39 34 28 28 30 27 22 19 18 19 18 18 19 19 20 20 20 17 13 14 17 21 28 32 41 48 44 46 49 44 46 47 47 57 56 51 54 54 52 53 50 46 52 63 62 56 59 62 52
16 12 11 12 12 12 12 12 13 15 18 19 19 18 18 19 19 26 36 43 44 37 32 37 41 41 42 43 48 44 34 34 37 38 34 27 26 28 27 23 23 26 26 23 21 20 20 19 20 19 18 20 19 20 20 18 20 18 19 26 33 40 40 41 48 45 51 63 47 40 55 57 59 59 48 53 60 52 57 71 73 59 40 38 42 43
13 11 11 11 11 13 14 13 13 14 16 18 19 18 18 19 20 24 32 40 46 44 37 38 40 39 37 40 47 47 39 34 34 38 35 26 21 20 20 20 21 23 22 23 22 22 21 20 20 19 18 19 19 20 19 21 25 23 26 34 38 40 36 44 51 37 48 64 41 37 60 61 60 63 56 62 63 54 64 70 63 55 34 21 32 43
11 12 13 11 12 14 13 12 13 14 15 17 18 19 19 18 21 24 27 34 42 42 40 40 38 34 32 32 39 44 42 36 32 36 36 28 22 18 17 18 19 21 22 23 24 23 22 21 21 20 20 20 20 21 18 21 29 31 38 42 40 41 40 44 48 41 43 46 39 45 55 53 53 57 57 59 53 44 49 43 39 51 37 18 24 28
11 13 15 12 13 14 11 11 12 13 15 17 17 19 21 19 20 23 26 29 34 33 34 38 36 33 28 25 30 37 43 41 32 32 36 31 26 21 17 15 15 17 18 21 25 25 23 23 23 22 21 21 21 23 20 21 27 30 40 46 41 42 43 36 37 45 39 32 44 43 30 33 37 39 36 30 28 33 41 39 33 37 28 18 24 21
13 13 16 14 12 12 11 11 12 13 14 16 17 18 20 21 20 22 25 28 28 27 28 33 35 34 28 24 30 37 44 41 28 27 33 32 30 28 23 18 15 14 14 16 20 22 21 20 21 21 21 21 23 24 22 20 23 28 39 47 43 39 35 24 21 31 30 35 46 30 18 26 20 22 25 16 21 31 39 42 30 24 22 20 22 19
16 13 15 15 12 10 11 11 11 14 15 15 18 19 19 21 21 20 23 25 25 26 28 31 33 33 29 28 35 42 49 44 27 21 26 27 29 31 29 27 21 16 14 14 16 18 18 17 17 19 21 23 25 25 21 18 22 28 32 34 40 43 34 17 11 19 27 38 37 18 16 22 10 14 23 24 33 35 33 33 26 26 27 24 24 23
18 15 13 14 12 10 11 11 11 13 15 16 19 20 20 21 21 20 21 21 23 24 25 27 29 30 28 27 32 42 48 42 28 21 21 22 24 27 30 31 28 23 18 16 16 17 17 17 18 20 23 26 27 24 19 18 23 24 19 16 24 33 29 15 8 17 27 29 22 12 12 13 12 19 27 33 38 35 34 35 34 35 32 28 27 25
19 18 14 13 12 11 12 12 11 13 14 17 19 20 20 21 20 20 20 21 22 23 24 25 25 27 28 23 24 34 38 32 25 22 23 24 22 21 25 28 30 30 27 20 17 17 17 17 17 19 22 24 25 21 18 20 23 18 10 8 10 14 18 15 11 15 22 19 13 12 13 15 19 24 28 33 33 34 38 38 37 37 35 32 28 26
19 20 16 14 13 12 13 13 13 15 15 16 19 19 19 21 23 23 23 24 25 24 26 27 23 25 29 24 18 24 30 27 22 20 23 26 23 18 19 22 26 31 32 28 21 16 15 14 13 13 15 17 19 18 18 19 17 12 8 8 8 9 13 15 14 15 18 17 15 15 16 20 22 23 28 32 31 36 39 37 38 36 34 33 29 29
19 20 17 15 15 12 12 13 14 15 15 15 17 18 19 22 25 26 24 24 26 24 24 24 21 21 26 26 21 20 25 26 22 21 21 22 24 23 18 16 21 26 31 33 29 21 14 12 12 10 10 12 13 15 18 16 11 9 11 11 10 12 15 17 19 18 19 20 20 20 20 22 22 21 26 31 33 36 36 35 35 33 33 32 30 32
19 21 19 17 17 15 11 12 14 14 13 13 15 18 19 21 26 28 24 24 25 22 21 21 22 22 23 25 24 23 24 23 21 22 21 20 24 28 22 15 19 25 28 32 34 29 20 16 16 15 13 14 13 14 16 13 9 10 12 13 13 16 19 21 22 21 22 24 24 25 25 25 24 23 24 28 30 30 31 31 31 32 33 32 31 30
19 20 20 18 17 15 13 11 12 13 13 14 16 17 18 19 23 24 22 22 22 20 19 21 24 24 22 22 24 24 24 22 21 21 22 21 19 21 20 17 19 23 24 28 31 32 29 24 22 20 18 18 16 15 15 12 9 11 14 15 17 19 21 22 23 23 25 27 28 29 29 29 29 28 26 26 27 28 28 30 32 33 33 33 32 28
19 19 18 17 17 16 14 11 10 13 15 16 16 16 18 19 20 19 18 18 18 17 18 21 25 24 20 21 25 26 24 23 22 20 21 19 14 14 17 17 18 20 22 24 25 29 32 30 27 25 22 22 21 18 17 14 10 11 14 17 19 21 22 23 23 24 26 28 30 31 31 32 33 32 31 31 33 34 35 36 36 36 36 34 32 30
19 17 16 16 16 15 15 12 10 12 14 16 16 15 17 18 19 18 17 18 19 18 17 20 26 24 19 21 24 23 22 22 21 21 20 18 15 14 15 15 16 17 20 22 23 25 29 31 30 29 27 26 25 24 21 19 15 12 14 17 20 22 23 23 23 23 25 28 31 32 32 34 34 35 35 35 37 39 40 41 39 38 38 35 33 32
18 15 15 17 16 14 15 14 12 11 13 15 16 16 16 17 18 17 17 19 20 20 17 17 23 23 19 20 20 18 18 18 18 18 17 18 18 15 14 15 14 15 18 21 23 25 27 29 30 30 31 29 28 28 27 28 25 19 16 17 19 21 21 21 21 21 24 26 30 32 34 35 35 36 36 37 40 42 41 42 42 41 40 37 36 34
19 15 13 16 15 13 15 14 12 12 13 14 16 16 16 18 20 19 18 19 20 21 19 16 18 20 18 18 17 16 17 16 16 16 15 17 19 15 13 14 13 15 18 19 21 25 26 28 29 31 33 32 30 30 31 36 36 29 23 21 20 21 20 18 18 19 22 24 27 30 33 35 35 36 37 38 42 44 42 42 44 43 43 41 39 37
20 17 13 14 15 14 14 12 12 12 13 14 14 16 17 18 19 19 19 20 19 19 19 18 17 17 18 18 16 17 17 16 15 15 13 15 17 15 12 13 14 14 15 16 18 21 24 26 28 31 33 33 33 31 34 41 44 40 33 28 26 25 23 21 20 20 23 25 26 28 29 31 34 36 37 39 41 43 43 44 45 45 45 44 42 41
21 19 15 14 14 13 12 12 11 11 12 13 13 14 16 16 17 19 19 19 19 19 18 18 16 15 17 18 17 17 17 17 17 15 14 15 16 16 14 12 13 14 15 16 17 19 22 25 27 31 34 35 35 34 37 44 49 48 44 39 34 30 27 25 24 26 27 28 27 26 26 27 29 32 35 37 40 42 43 44 45 46 46 46 45 44
22 21 17 14 14 12 11 12 11 9 10 12 13 14 15 16 17 19 18 18 18 18 17 17 16 15 15 16 18 19 17 17 17 15 14 15 14 16 17 14 12 14 15 15 17 19 22 24 27 31 34 36 36 36 39 44 48 49 48 46 42 37 33 28 26 28 32 34 34 32 30 28 25 28 33 37 38 40 42 41 41 44 45 46 47 44
23 22 19 16 15 13 11 11 11 10 9 10 12 14 14 15 17 17 18 18 17 16 16 16 16 15 14 15 19 20 17 16 15 15 15 16 15 16 19 16 13 14 13 13 16 19 21 23 26 30 32 31 33 37 40 44 46 47 47 48 45 42 40 37 32 30 32 38 42 41 39 36 29 26 28 32 35 38 41 41 41 42 39 46 56 48
23 23 22 19 18 16 14 12 11 10 9 8 9 11 12 13 15 15 16 18 17 15 16 17 17 15 14 16 18 18 17 16 15 16 16 16 16 17 18 16 15 14 13 12 14 17 20 22 24 28 27 23 27 34 40 43 45 46 46 46 45 44 44 46 44 40 37 40 43 45 47 49 45 37 30 29 30 32 37 39 39 42 40 47 62 58
23 24 24 22 20 20 18 15 12 11 11 10 8 8 11 12 13 15 15 17 18 16 17 18 17 16 15 16 17 16 16 16 16 17 17 15 14 15 15 16 15 13 12 13 15 17 18 20 22 24 21 17 21 28 34 39 42 45 45 42 43 43 43 47 49 49 48 47 49 50 51 54 53 45 36 32 28 25 33 39 36 41 46 46 56 63
23 25 25 23 21 22 22 18 15 14 14 13 10 8 9 9 11 13 14 17 18 16 17 18 16 16 16 16 18 16 15 16 16 17 18 16 15 14 16 16 14 12 12 14 17 19 19 19 20 21 18 17 19 21 24 27 31 38 40 38 39 41 43 46 48 50 52 51 52 54 55 56 54 47 38 35 33 28 34 48 49 50 54 52 56 65
26 24 24 24 22 20 20 19 18 16 15 14 12 10 10 9 9 11 13 15 16 16 18 19 17 17 16 15 17 17 16 17 15 14 15 16 16 15 16 15 13 12 12 12 17 20 20 19 19 18 17 17 18 18 19 18 20 25 28 30 36 39 41 44 46 50 49 49 53 56 55 55 57 58 54 52 51 40 31 41 52 55 59 58 57 61
31 26 27 28 25 21 20 19 19 18 16 15 13 11 10 9 9 9 10 12 14 16 18 19 18 18 16 15 15 16 16 18 16 14 15 16 16 15 15 14 14 13 12 11 15 20 20 18 17 16 17 18 18 18 18 16 17 19 20 25 33 38 41 42 44 47 45 48 60 60 51 47 49 56 60 64 71 59 37 36 45 51 59 58 50 50
38 33 31 29 27 23 21 20 18 17 17 16 15 13 10 10 10 10 9 9 11 14 15 16 18 19 18 16 16 16 16 17 15 15 15 15 15 16 15 14 14 14 13 12 15 20 19 15 15 16 16 17 18 17 15 14 16 17 18 24 32 38 41 42 43 44 44 51 64 61 47 42 45 49 50 55 71 70 53 48 47 43 46 44 38 38
46 43 39 33 30 28 25 23 21 18 17 17 16 15 13 12 12 11 10 10 10 11 12 13 16 20 19 17 18 17 16 15 15 15 15 14 16 17 14 12 14 14 14 13 15 19 18 14 14 15 16 17 16 15 14 13 14 17 21 28 36 39 41 41 42 43 43 49 59 61 55 53 60 66 60 56 66 69 60 56 53 43 36 34 37 39
48 44 44 39 36 35 32 28 25 21 18 17 16 16 15 13 11 11 11 11 11 10 10 11 14 17 18 18 18 16 15 16 14 13 15 15 16 16 13 12 13 13 13 13 15 17 17 15 15 15 15 17 16 15 14 15 16 20 27 34 38 39 39 40 40 41 41 43 47 52 55 56 58 64 60 51 51 53 54 60 63 56 44 37 41 45
48 40 42 44 40 37 33 30 27 24 20 18 16 15 15 14 12 11 11 11 11 11 11 12 12 13 15 17 17 15 15 16 13 13 16 16 15 14 12 12 11 11 13 14 14 16 16 15 15 14 14 17 17 16 17 18 18 22 28 33 34 36 39 39 39 40 39 37 34 35 38 40 40 42 43 43 44 46 51 60 65 64 56 47 45 48
51 44 43 45 42 36 33 29 26 24 22 20 17 15 15 14 13 13 11 11 12 11 12 12 11 11 13 14 13 13 14 14 14 15 16 14 12 11 11 12 11 11 14 15 15 16 16 15 15 14 14 16 18 18 19 19 18 19 23 27 29 32 34 34 35 34 31 30 32 35 37 38 39 39 40 42 41 40 44 50 56 61 62 58 53 51
53 50 45 46 44 39 36 32 27 27 26 21 17 15 15 15 14 13 12 12 12 13 13 14 14 14 14 13 14 16 16 16 15 13 11 11 11 11 11 11 11 11 13 14 15 16 17 17 16 15 15 16 18 19 19 18 17 20 24 25 26 28 27 27 28 27 28 31 34 37 39 40 42 42 38 32 26 25 31 39 50 61 64 60 55 49
59 55 48 47 45 40 39 38 36 34 28 21 19 18 16 15 14 14 13 12 12 13 14 15 16 16 16 16 20 21 19 17 15 11 9 10 10 11 12 11 11 11 12 14 15 16 17 18 18 16 15 16 18 18 19 19 20 25 29 27 26 26 25 24 25 26 29 33 35 36 38 37 36 31 24 19 17 20 24 29 41 55 56 50 47 46
59 55 48 47 45 42 42 41 39 35 28 24 24 22 19 17 15 14 14 12 12 13 13 14 16 16 16 19 22 21 16 14 13 12 12 12 11 11 12 12 11 11 12 14 15 16 17 16 16 17 17 17 18 19 21 22 24 28 32 30 27 25 23 23 27 30 32 33 34 33 29 24 20 16 15 18 22 26 27 28 38 50 53 52 51 53
55 53 50 49 47 45 45 40 37 37 32 27 29 30 27 23 20 17 16 15 14 14 13 15 16 15 16 19 18 15 13 12 12 12 12 12 11 11 12 11 11 11 11 13 14 16 16 14 15 18 19 19 19 19 20 22 23 24 26 25 23 22 22 24 28 31 31 30 28 23 18 15 15 17 22 27 30 31 34 38 47 57 61 61 59 57
56 51 50 52 50 49 49 46 45 43 36 34 42 42 32 26 24 21 19 18 18 17 17 17 19 19 19 19 15 11 12 12 11 12 12 11 10 11 11 12 11 11 11 12 14 16 15 15 16 19 22 23 21 18 18 19 19 20 20 20 20 22 24 27 30 30 29 26 23 18 16 18 21 25 29 32 33 37 44 51 58 63 63 59 55 53
59 53 49 47 46 48 49 49 49 46 42 48 57 49 34 27 24 21 23 21 19 21 22 20 21 21 18 15 12 11 12 12 12 14 13 11 11 11 11 12 11 11 11 11 13 15 14 14 15 18 22 24 22 19 19 20 21 23 24 24 25 26 28 29 29 29 27 25 23 21 22 24 26 28 29 31 35 44 54 61 64 65 63 58 55 56
61 55 49 43 45 50 51 49 49 49 51 57 56 46 38 33 29 27 29 24 18 19 20 19 18 18 15 14 13 12 12 13 16 18 15 11 11 11 11 12 11 11 12 12 12 14 13 13 16 20 22 23 22 21 21 22 24 26 29 32 31 30 30 30 30 29 27 25 23 24 25 25 25 26 29 33 39 46 56 64 66 66 66 63 57 56
59 55 48 43 46 49 49 50 50 51 56 58 53 48 44 40 36 35 33 28 24 22 18 17 18 16 14 15 14 12 12 13 15 16 14 11 12 11 11 12 12 12 12 13 13 13 12 14 18 22 24 24 24 24 24 25 25 27 32 35 34 31 30 30 30 29 27 27 26 25 26 26 26 31 37 42 46 49 55 63 68 68 68 64 56 54
60 59 51 45 47 49 51 52 52 55 61 60 54 51 48 44 46 46 40 36 35 30 21 17 17 16 15 15 14 13 13 13 11 11 11 11 11 12 13 13 13 13 13 13 14 14 15 17 20 24 26 26 26 26 26 27 28 31 34 34 33 31 30 30 31 30 28 29 30 30 32 33 34 39 44 46 47 49 54 62 66 68 67 61 54 53
58 57 50 48 51 53 57 59 58 63 66 60 55 56 56 57 61 60 51 43 41 42 37 28 20 17 15 15 17 20 18 14 11 11 13 13 14 14 15 16 16 17 17 17 19 21 22 24 25 27 28 28 29 29 30 31 32 33 33 33 32 32 31 30 29 28 27 27 29 36 41 41 42 46 47 45 46 49 55 60 65 67 64 57 51 52
51 46 44 49 53 53 58 63 62 60 58 55 55 57 57 61 65 65 60 52 50 55 55 41 27 22 22 22 24 24 20 17 19 23 23 22 22 22 23 24 26 26 25 25 27 29 30 31 30 30 30 31 32 32 32 33 34 34 33 33 33 32 32 30 29 29 29 28 32 40 44 44 47 52 50 48 49 52 56 61 64 66 62 53 48 52
49 43 42 46 45 44 49 54 53 51 50 53 55 54 55 59 61 61 61 57 55 59 60 50 38 35 37 36 29 24 23 27 33 37 33 28 27 28 28 29 30 29 29 30 32 33 34 34 33 33 33 33 33 33 33 33 34 35 36 36 37 37 38 36 34 34 36 37 40 45 45 46 53 56 53 51 52 54 58 64 65 63 58 51 47 49
49 41 43 40 33 36 44 45 45 48 51 56 62 66 68 68 63 59 59 58 58 60 60 55 50 49 52 49 38 31 35 41 43 42 37 32 31 32 32 32 31 31 32 33 34 35 36 35 35 34 34 35 34 35 36 36 37 38 38 38 40 42 44 44 43 43 43 43 44 44 42 45 50 48 45 47 50 54 62 68 67 63 57 52 51 54
46 38 45 42 34 44 54 48 44 52 59 64 71 75 74 73 70 67 66 65 64 63 60 59 60 63 64 61 52 44 45 48 47 43 41 38 37 37 36 36 36 36 36 36 37 37 36 35 36 36 37 38 38 38 39 40 40 41 41 41 42 43 44 45 45 44 43 43 43 41 37 34 33 34 38 45 51 60 68 70 70 67 59 54 57 63
51 43 49 46 42 54 63 54 50 61 69 69 69 68 65 65 66 65 64 63 61 61 61 61 63 64 64 63 59 52 49 49 46 43 45 47 45 43 42 41 41 41 41 41 41 42 42 41 41 41 41 41 41 40 41 42 41 41 42 42 42 42 43 43 42 41 40 38 37 37 34 29 30 37 44 47 52 63 72 74 75 74 68 62 61 63
56 52 52 49 49 56 61 58 59 67 71 68 65 63 61 61 61 60 60 59 57 57 58 58 57 57 56 57 56 54 51 49 45 44 48 53 54 52 50 48 48 48 47 46 45 46 45 44 42 42 42 42 41 40 40 40 39 39 40 41 41 40 40 39 39 38 37 33 31 33 36 39 42 44 44 45 53 67 77 81 81 77 72 68 64 60
68 64 58 59 63 62 59 62 66 67 67 68 68 65 60 57 58 58 56 55 55 55 55 54 54 53 52 51 52 52 51 50 48 47 49 52 54 54 52 51 50 50 49 48 47 47 46 44 43 42 41 40 40 40 39 39 38 38 37 38 38 38 38 39 38 36 33 30 30 36 44 48 47 44 46 54 64 73 80 84 80 72 66 62 58 54
77 71 67 72 79 75 67 66 68 67 66 70 76 77 70 62 59 58 56 56 56 55 54 53 53 52 50 49 50 50 49 48 48 48 48 49 50 51 51 50 50 49 49 48 47 46 46 44 43 43 42 41 40 40 40 39 38 37 36 36 35 37 39 38 36 33 29 28 34 45 51 49 48 50 57 64 69 74 81 84 76 63 53 48 46 46
Wind_Speed
31 29 31 33 31 31 31 30 28 25 21 20 20 20 19 17 18 18 17 17 20 19 17 18 17 15 15 14 17 19 16 14 18 25 28 26 26 26 26 27 27 27 26 25 24 24 25 26 26 25 24 23 22 22 21 20 19 18 17 16 15 15 16 15 14 13 13 14 13 13 14 13 11 12 12 12 14 13 13 15 15 14 14 14 13 12
29 31 33 33 30 27 27 29 28 27 24 20 21 20 19 20 17 16 17 17 20 19 15 16 17 16 15 14 16 20 20 18 16 20 26 28 27 27 28 29 29 28 28 28 29 28 28 28 28 27 25 24 23 23 22 21 20 19 18 16 15 16 16 15 15 14 13 14 13 12 13 13 13 13 12 12 14 14 14 15 14 13 14 14 13 11
28 34 32 29 28 26 24 27 29 29 27 23 22 21 21 21 18 15 15 16 19 20 15 13 16 17 17 16 18 21 20 18 16 16 20 25 28 29 30 31 31 30 30 32 31 31 30 29 29 28 26 24 23 23 23 22 21 19 18 17 16 16 16 16 15 15 15 14 14 15 15 15 15 13 13 14 15 15 14 12 11 13 16 16 13 12
27 31 30 27 26 26 24 25 28 29 29 27 25 24 22 21 19 18 18 17 20 21 15 13 15 15 15 16 20 22 21 19 18 17 18 22 26 29 30 32 33 33 34 34 32 31 31 30 30 29 28 26 25 25 24 23 22 20 18 17 16 16 16 17 16 17 17 14 15 17 16 16 15 13 14 15 16 18 16 12 11 14 17 17 15 11
24 23 27 28 26 26 25 24 26 28 29 29 28 26 23 20 19 20 19 16 17 18 16 15 14 15 17 17 20 22 22 23 22 20 21 22 24 26 28 32 34 34 35 35 33 33 33 31 30 30 29 28 27 26 25 24 22 21 18 17 17 17 17 18 18 18 18 16 18 19 17 16 16 16 16 15 16 18 17 14 13 14 16 15 13 11
26 21 24 29 28 28 28 26 27 28 28 29 29 28 24 20 18 19 20 18 17 18 19 17 13 15 19 20 21 20 21 24 24 23 24 23 24 25 26 30 33 35 36 36 34 34 34 32 31 30 29 29 28 27 26 24 22 21 19 19 19 19 19 20 20 20 19 18 19 18 18 18 17 19 19 17 18 18 17 16 15 15 14 13 12 11
27 23 24 27 28 30 30 29 28 28 29 28 27 28 27 23 19 18 22 22 21 20 18 18 15 15 19 21 21 20 21 24 24 24 25 25 25 25 25 28 31 35 37 37 36 36 35 34 32 31 30 29 28 27 26 24 23 22 21 22 22 22 22 21 22 22 21 20 19 18 18 18 19 20 19 18 19 18 16 16 15 15 14 13 12 11
28 26 23 25 27 30 32 32 28 27 29 29 25 24 26 27 22 18 20 24 24 21 18 19 18 17 20 19 18 19 21 21 21 23 25 25 27 26 25 25 27 30 34 36 37 38 37 35 33 31 29 29 28 27 26 24 23 23 23 24 24 23 22 22 23 23 22 20 19 19 19 19 20 19 18 19 20 18 17 16 15 15 14 12 12 11
26 31 28 26 27 29 32 33 28 26 29 28 21 19 23 26 24 19 20 23 23 22 22 23 21 19 20 19 16 19 22 21 20 21 23 24 26 27 28 26 26 26 29 32 35 36 36 34 32 30 28 27 27 26 26 25 23 23 24 24 23 21 20 21 23 23 22 20 20 20 19 20 21 20 20 20 18 17 17 16 15 14 12 11 10 9
19 31 33 29 30 30 29 29 28 27 29 27 18 14 18 21 23 22 20 21 23 24 24 25 24 18 17 21 21 20 23 23 21 20 22 23 23 25 27 28 27 27 27 29 32 33 34 32 29 28 27 26 26 26 26 25 24 24 25 24 22 20 20 21 23 22 20 19 20 20 20 21 22 21 20 18 17 17 17 16 14 12 11 10 9 8
14 21 30 30 30 29 25 25 28 27 27 24 18 15 16 17 20 20 19 20 20 20 21 24 25 19 14 20 22 22 25 24 20 20 21 22 22 22 24 27 28 29 28 28 29 32 32 29 27 27 27 26 27 28 28 26 26 26 27 25 23 22 21 21 23 22 20 20 19 20 21 22 22 21 19 17 17 17 16 15 13 11 10 9 8 7
17 16 25 29 28 27 24 23 25 26 27 25 20 20 18 16 17 17 18 18 14 13 19 25 27 23 18 20 21 19 23 25 21 21 21 21 22 21 21 23 26 28 30 30 28 30 31 28 27 27 27 27 28 30 29 28 28 28 27 26 25 24 23 23 23 21 20 20 20 21 22 22 21 20 19 17 16 15 14 13 11 10 9 8 7 7
24 20 21 24 26 30 27 24 24 26 30 29 24 24 21 14 13 14 14 15 13 15 20 23 26 26 23 24 23 18 18 21 21 20 20 20 20 22 20 18 20 23 27 31 30 29 29 28 27 28 28 27 28 29 29 29 30 29 28 27 26 26 25 24 23 22 21 20 21 21 22 22 21 19 18 18 16 15 14 12 10 9 8 7 6 5
24 23 23 22 24 31 33 30 28 27 31 34 30 28 24 15 11 11 11 11 13 18 22 21 21 23 23 23 24 23 21 21 20 20 21 20 20 23 23 17 17 19 22 27 30 30 30 29 28 29 27 26 26 26 28 29 31 31 29 28 27 26 26 24 23 22 22 21 22 22 21 21 21 19 19 18 17 16 15 13 11 9 8 7 6 5
20 20 29 31 24 28 36 36 30 26 29 35 34 30 28 24 17 12 11 13 14 17 22 23 19 18 21 19 19 22 23 22 23 21 20 22 21 22 23 18 16 18 19 21 26 29 31 31 30 29 27 26 26 25 26 28 31 32 30 29 27 27 26 24 23 22 22 21 22 22 21 21 21 20 20 19 19 18 16 14 13 11 10 9 8 7
22 19 25 32 27 24 31 36 32 25 26 31 34 34 33 31 26 20 17 19 20 17 18 22 20 20 21 19 17 18 18 18 20 20 20 22 20 16 17 17 15 16 17 19 22 26 30 32 30 29 28 28 27 26 26 27 29 31 31 29 27 27 27 25 24 22 21 21 23 22 21 21 21 21 22 21 20 18 17 16 15 14 13 12 10 9
22 19 18 26 30 27 27 32 35 31 26 26 33 38 35 30 29 27 22 19 18 15 16 19 19 20 22 21 22 23 21 19 19 19 20 22 21 16 14 16 18 18 18 20 22 24 28 30 29 28 29 29 29 28 27 26 26 28 30 29 28 28 28 26 25 23 22 22 23 23 22 23 23 22 23 23 22 21 20 18 17 17 16 14 12 10
17 17 16 23 29 30 27 27 33 35 28 25 31 36 34 27 27 29 22 17 15 12 15 20 19 19 20 19 21 24 25 25 23 21 20 20 22 20 15 19 22 21 18 18 20 22 24 26 26 27 28 29 30 29 28 25 24 25 28 29 29 29 29 27 25 24 24 23 24 24 24 24 24 24 26 27 26 26 24 23 21 20 19 16 14 12
15 16 17 22 26 27 27 26 30 35 35 30 26 28 32 27 25 28 21 14 15 11 11 19 21 21 22 19 16 18 20 22 22 21 19 18 20 19 15 20 22 21 19 17 18 20 22 24 25 27 29 30 31 31 29 26 24 24 25 26 27 28 29 27 26 26 26 25 25 25 25 26 26 28 30 31 30 30 29 27 25 24 22 19 16 15
15 16 16 20 25 26 29 31 32 34 37 37 28 25 32 32 28 30 27 19 16 12 10 16 19 20 23 22 19 17 17 18 18 19 18 16 17 17 16 18 18 18 20 19 19 20 23 24 25 28 29 30 32 32 30 27 24 24 24 24 25 26 27 27 28 28 27 26 26 26 26 28 29 31 32 33 34 34 33 31 29 27 24 21 19 17
16 17 15 16 22 26 31 35 38 35 35 38 37 31 31 33 29 29 32 31 25 14 10 12 13 18 22 22 24 24 22 21 20 20 20 18 17 17 18 19 18 17 18 18 17 19 22 23 24 26 28 31 33 34 32 29 26 25 24 24 25 26 27 28 29 28 27 27 26 26 27 29 30 32 33 34 35 36 35 34 32 29 27 25 22 19
19 18 18 16 20 27 31 32 36 37 34 34 37 36 34 31 28 24 25 33 35 26 19 15 12 17 19 16 19 23 23 23 22 21 22 22 20 18 20 22 19 18 19 18 17 17 19 22 24 25 27 31 34 36 34 31 28 26 25 25 25 27 28 29 30 28 25 25 25 25 27 28 30 33 34 35 37 38 37 36 35 33 30 29 26 24
21 18 19 18 18 22 25 25 28 33 36 35 33 35 37 34 32 28 22 27 35 32 30 27 19 20 21 13 12 17 20 21 20 19 20 21 20 19 19 21 19 18 19 19 19 19 21 24 26 27 28 30 32 35 35 33 31 28 27 27 27 28 28 29 30 29 26 24 24 25 26 28 30 33 35 36 37 38 37 36 36 35 35 35 30 27
24 20 19 20 18 18 20 23 25 27 32 37 36 35 37 38 38 37 30 28 33 32 31 26 20 22 23 13 10 13 14 15 16 18 20 22 23 22 22 21 20 20 21 23 23 22 25 29 30 30 29 28 30 32 33 34 33 30 28 29 30 30 29 28 29 28 27 25 25 27 27 28 29 31 34 35 37 38 36 34 36 37 40 40 32 27
27 23 21 19 15 14 17 19 23 26 28 34 37 36 37 38 38 39 36 32 33 36 36 26 20 26 27 18 15 16 13 10 12 15 19 24 26 26 26 25 22 21 22 23 25 25 27 31 32 30 29 28 29 30 30 32 33 31 30 31 32 32 29 28 27 26 25 24 26 28 28 29 31 32 35 36 38 40 36 32 34 37 41 43 39 35
25 25 25 22 15 13 14 17 22 27 27 29 33 35 37 39 39 38 37 33 33 36 39 36 30 31 33 27 25 25 23 20 17 14 15 19 22 22 24 25 22 20 20 20 23 27 29 31 29 29 29 28 27 27 27 28 29 31 32 32 33 32 29 27 25 25 26 25 26 28 30 34 37 38 40 41 41 45 41 32 28 28 31 38 43 40
20 23 27 28 26 22 19 20 21 23 26 28 31 34 36 38 39 39 37 37 37 34 36 41 38 33 34 32 28 27 27 26 25 21 17 17 19 19 22 23 23 21 20 20 22 25 28 29 28 29 29 28 27 25 25 26 27 29 31 32 33 32 29 26 25 27 28 24 24 29 34 37 37 37 40 40 42 48 48 40 33 27 26 26 29 28
19 21 25 28 31 30 26 23 22 22 25 26 28 32 35 36 38 42 43 42 39 32 31 38 38 37 39 36 30 27 23 22 25 28 26 24 22 22 24 26 27 25 23 22 22 25 28 28 28 29 27 27 27 25 24 25 27 28 29 30 32 31 28 25 25 26 25 23 26 33 37 36 33 32 35 38 42 48 50 47 42 32 25 24 24 22
20 22 24 25 28 31 30 28 27 26 25 25 26 29 32 35 36 40 44 43 40 36 33 32 33 37 42 41 37 33 26 22 23 25 29 29 26 27 29 29 29 29 26 23 23 27 30 28 27 27 25 25 25 24 24 25 26 27 27 28 28 28 27 25 25 25 23 24 32 38 37 34 34 34 33 36 42 45 43 40 36 30 29 31 30 26
21 22 22 23 26 28 30 30 31 31 31 29 29 29 30 34 37 38 40 40 41 43 41 35 32 34 37 39 42 41 36 32 29 26 28 30 30 31 31 29 29 29 28 25 25 29 30 26 25 25 25 26 25 24 25 25 26 26 25 25 25 25 26 26 27 26 24 26 33 38 38 37 39 42 39 37 40 39 34 32 29 28 30 31 27 23
21 20 18 19 23 25 29 33 33 33 34 32 33 33 32 33 35 38 39 38 39 42 42 40 39 37 34 32 36 39 38 37 36 33 30 30 32 32 32 31 31 30 28 26 27 30 31 29 26 24 25 27 26 26 27 27 27 27 25 25 25 25 26 28 28 27 27 29 32 34 35 35 37 39 37 33 33 32 29 27 26 25 26 23 19 17
20 19 15 15 19 21 25 30 33 34 35 36 36 35 34 35 35 36 37 36 37 39 38 41 44 43 36 31 32 35 36 36 37 36 33 32 34 36 35 34 31 30 27 25 27 31 34 33 28 24 25 27 28 28 29 29 29 29 28 27 27 27 28 28 28 29 30 31 30 29 29 30 31 31 31 29 29 30 29 27 25 24 25 23 20 19
19 19 17 14 15 17 16 20 27 30 30 33 36 36 35 36 36 36 36 35 34 35 35 38 41 39 34 32 34 36 36 36 38 39 37 35 35 38 38 34 31 31 30 27 28 31 35 38 32 27 28 31 31 31 31 31 32 31 30 29 28 28 28 28 28 29 30 29 27 28 30 31 32 31 31 30 29 29 28 26 25 24 24 23 22 22
18 19 18 14 13 14 12 14 18 19 20 25 31 33 34 36 37 36 38 37 34 33 32 31 30 29 29 30 32 32 32 34 38 41 40 38 37 38 39 36 33 35 35 32 29 29 35 40 36 31 32 34 33 33 34 33 33 32 31 30 29 29 29 28 28 29 29 29 29 30 32 32 33 33 32 29 27 25 24 22 21 20 20 19 20 21
18 19 18 14 14 14 13 13 13 14 19 24 25 27 31 35 36 37 37 38 36 35 34 31 27 24 23 24 25 26 28 31 34 37 39 39 39 40 40 37 35 36 36 34 31 28 32 38 36 34 36 37 34 34 35 34 34 33 32 32 32 32 31 30 30 30 30 31 32 32 32 32 32 30 28 24 22 21 22 21 19 16 15 16 17 17
19 20 18 14 14 14 14 14 13 13 19 24 24 25 27 28 31 34 36 37 37 36 35 34 32 28 24 23 24 25 26 26 27 31 36 39 40 42 41 39 37 37 36 35 31 28 30 34 36 38 40 39 37 36 35 35 35 35 34 34 35 35 35 33 32 32 32 32 32 31 30 28 26 24 21 19 19 19 20 20 17 12 11 12 13 14
21 21 20 17 15 13 13 15 14 15 19 24 24 22 22 24 27 30 33 34 34 35 36 34 33 31 28 28 31 29 26 25 26 29 35 38 40 41 42 41 41 38 37 36 32 29 32 35 38 41 41 40 39 37 36 36 36 35 35 35 36 36 36 36 35 34 33 32 31 30 27 23 21 18 16 16 17 19 20 18 14 10 9 11 13 16
21 21 22 21 17 12 10 10 10 12 15 18 18 18 20 24 28 29 31 32 30 31 34 35 34 32 31 33 36 31 27 28 29 29 35 40 40 41 43 44 43 39 37 38 35 31 34 38 39 39 39 40 40 39 38 37 35 35 36 36 37 37 37 36 35 34 32 30 28 26 23 20 18 16 14 15 17 18 18 15 12 12 13 15 18 19
22 21 22 22 20 18 14 9 8 11 12 10 11 16 19 22 26 27 29 33 33 31 32 33 34 35 35 36 36 32 30 31 29 29 35 38 39 40 42 43 44 40 37 39 38 35 36 38 35 33 36 41 41 40 40 38 37 37 39 39 39 39 38 36 35 32 29 27 25 23 21 19 17 15 14 17 18 19 18 17 16 16 17 18 18 17
22 22 22 22 23 22 19 14 11 13 15 13 14 16 16 17 20 22 21 25 32 35 35 34 33 33 33 32 32 31 32 31 29 30 34 35 34 35 35 38 42 40 38 39 40 38 38 37 32 30 37 42 42 42 42 40 39 40 41 41 41 40 38 36 33 29 26 24 22 20 18 16 15 15 18 20 20 20 20 21 21 19 17 17 17 15
23 24 23 24 24 23 22 19 15 13 16 18 19 19 19 17 17 19 20 20 24 28 32 33 32 31 30 29 31 34 34 32 31 32 34 33 32 31 31 34 36 36 36 38 39 38 38 36 31 32 39 43 43 42 42 42 41 41 40 40 40 39 38 36 32 27 22 19 17 16 17 18 19 22 23 23 23 23 23 22 21 19 17 16 15 14
25 24 23 24 24 22 21 20 15 12 15 19 20 21 21 17 14 17 21 22 21 21 25 31 33 32 31 31 33 35 33 31 31 33 34 33 32 32 32 33 34 33 34 35 35 34 35 34 33 35 40 44 44 43 43 42 40 38 37 36 36 37 37 35 30 24 18 15 16 19 22 24 26 27 26 25 26 26 24 23 21 19 18 17 16 13
27 25 24 25 24 20 18 15 10 9 12 17 18 18 15 13 16 17 19 21 20 19 23 31 35 35 35 34 34 32 31 30 31 33 33 32 31 31 30 30 30 29 30 30 29 29 30 33 36 39 42 43 43 42 42 41 37 34 33 32 32 32 32 31 27 22 19 20 23 27 28 28 28 28 27 27 28 26 24 22 20 18 17 16 13 10
27 26 24 25 25 21 18 17 15 16 17 18 22 23 19 18 21 19 16 17 18 19 25 32 35 35 33 33 33 32 30 30 29 28 27 26 25 26 25 24 24 25 26 28 29 31 33 35 39 41 42 41 40 39 39 38 37 36 33 30 28 26 25 25 26 27 28 29 29 30 30 30 30 28 27 27 26 24 21 20 18 17 15 13 10 7
23 24 22 25 30 29 25 23 23 23 21 23 27 29 25 22 24 20 15 15 19 22 26 30 32 32 32 33 34 33 31 29 27 27 28 27 27 28 28 30 30 31 32 33 34 35 36 36 37 38 38 37 37 37 37 36 35 36 33 29 24 22 22 24 26 28 30 31 32 33 33 32 29 27 26 26 24 21 18 17 17 16 14 11 9 8
18 20 21 26 34 34 28 26 24 19 19 23 21 17 17 19 20 19 16 18 21 24 27 29 31 32 33 34 34 32 31 31 33 33 33 32 33 33 33 33 34 34 35 36 37 37 37 36 36 36 36 35 34 33 33 33 31 30 30 29 26 24 24 25 24 25 26 29 32 31 29 27 26 26 27 27 24 20 17 15 15 14 12 10 9 9
18 18 18 23 29 27 23 25 24 17 14 13 13 16 19 19 18 19 22 26 28 30 32 33 33 34 35 35 35 35 36 38 39 39 38 37 37 37 36 35 34 35 35 36 36 35 35 34 34 33 32 31 30 29 29 30 29 27 28 29 27 25 24 23 23 25 27 30 30 28 26 25 26 28 28 26 22 18 17 16 15 14 13 11 10 10
18 17 16 19 22 21 20 23 22 16 15 22 26 25 26 29 30 29 29 29 29 31 33 34 34 33 34 35 36 37 39 39 40 40 38 37 36 36 36 35 34 33 33 32 31 29 29 29 27 26 25 24 23 23 23 23 24 24 24 24 23 22 22 24 26 28 29 30 28 27 27 27 27 28 26 22 20 19 19 18 16 15 13 12 12 12
20 19 18 18 20 21 23 23 21 19 23 27 25 24 28 29 29 30 30 27 25 25 26 27 27 27 29 31 31 33 36 38 38 37 35 32 31 32 33 32 31 29 28 27 25 23 22 22 21 21 21 20 19 19 19 19 20 21 21 21 21 23 26 28 29 29 29 27 24 24 26 26 26 25 23 20 20 21 21 19 17 16 14 14 15 14
22 22 21 19 19 22 25 24 23 23 25 24 20 22 27 28 27 28 28 27 26 24 21 20 20 20 21 22 22 23 26 29 31 31 29 26 25 25 26 26 26 25 23 22 22 21 20 21 21 21 20 20 19 19 19 20 21 22 23 25 27 29 30 31 30 27 25 22 22 23 24 24 23 21 19 18 20 22 23 21 19 17 16 17 17 15
25 26 25 23 20 20 24 24 24 27 29 25 17 16 20 24 26 27 27 27 27 24 21 20 18 16 18 18 17 16 17 18 20 21 20 18 17 18 19 20 21 22 20 19 20 20 20 21 21 21 20 20 20 20 21 22 22 24 26 28 30 31 31 29 27 25 23 21 21 22 22 20 19 18 18 18 20 23 25 23 20 18 17 17 16 14
Wind_Direction
200 199 205 206 206 207 208 209 213 216 216 218 216 217 220 221 218 206 207 222 222 216 216 219 224 226 224 237 256 252 243 236 221 215 218 218 218 219 220 221 222 221 223 228 228 226 225 221 219 220 221 220 222 226 229 232 230 227 226 223 219 218 217 218 222 223 223 224 221 220 221 218 216 227 238 244 244 240 241 242 239 246 256 258 259 264
203 207 211 209 206 207 210 212 215 219 221 223 221 218 221 228 225 202 201 219 221 217 216 219 225 232 229 229 248 255 249 244 233 222 221 220 219 220 221 223 222 221 224 227 227 227 226 225 223 224 224 225 227 231 234 235 233 231 230 231 225 220 219 219 220 220 218 218 215 214 219 219 215 220 228 235 237 233 233 239 246 255 256 258 262 261
206 213 213 209 208 209 213 215 215 218 221 223 224 224 224 225 223 210 208 220 228 225 216 218 228 234 236 233 241 250 249 245 241 235 230 226 223 221 220 222 222 221 224 226 227 228 229 228 228 227 228 231 233 236 239 239 237 233 233 236 228 219 221 221 219 217 214 213 215 213 214 213 207 211 222 225 228 228 224 225 241 254 250 248 244 235
209 217 213 208 209 210 214 213 213 217 221 225 227 227 227 224 217 211 212 221 233 231 217 218 232 236 238 236 237 244 245 242 240 237 236 233 229 226 223 222 221 221 223 226 227 229 231 230 230 231 233 235 236 237 238 239 237 235 236 237 227 220 223 221 219 217 209 209 215 211 207 210 211 214 220 223 229 232 230 230 235 237 234 226 216 214
213 219 211 207 209 210 210 209 209 215 221 226 228 228 229 226 218 213 213 212 222 226 216 216 233 240 239 237 240 247 249 244 239 233 233 234 232 230 227 224 222 222 223 225 227 230 233 233 233 235 236 237 237 237 238 239 237 237 235 230 220 217 221 220 217 213 206 206 212 210 211 220 223 221 220 221 224 224 223 225 221 216 215 207 199 203
216 218 212 205 209 212 211 213 214 215 221 225 226 228 231 228 221 219 217 212 218 227 222 216 231 244 240 239 240 245 251 248 242 235 230 231 232 230 225 223 221 222 224 224 226 230 235 236 236 237 237 237 237 237 238 238 237 235 228 218 214 214 217 216 212 208 204 203 206 209 215 219 219 218 218 217 212 207 202 199 196 196 198 192 186 185
212 216 218 207 208 214 213 217 218 215 221 226 225 226 230 230 229 226 218 214 221 230 227 222 230 246 247 241 235 237 247 250 245 239 233 230 229 228 224 221 220 220 223 224 224 228 233 235 237 238 238 237 236 236 237 236 233 228 220 215 214 213 214 212 206 205 202 200 202 205 208 210 214 218 213 203 193 186 184 185 183 179 176 171 165 160
207 208 216 207 207 215 214 216 216 212 220 226 225 227 227 228 230 228 218 218 227 234 232 225 226 244 252 243 229 231 242 249 247 241 240 237 233 232 229 224 223 221 223 225 224 227 232 235 236 237 237 236 235 233 234 234 228 222 217 216 216 213 213 206 199 200 201 200 201 200 201 205 207 204 194 184 179 176 175 175 171 164 158 152 146 139
207 206 210 206 206 212 215 215 213 211 218 223 227 230 227 225 227 229 225 224 228 232 231 226 224 238 250 242 229 229 230 238 250 248 245 246 243 241 237 231 229 226 225 226 226 228 233 236 237 236 235 232 232 230 230 230 225 219 217 216 214 211 207 198 194 197 200 200 199 197 195 192 188 182 177 175 174 171 167 163 160 155 148 144 139 132
214 214 215 213 210 212 215 214 212 212 215 219 226 230 223 222 225 229 233 232 231 230 229 225 219 224 244 239 228 227 228 233 248 252 249 250 251 250 247 241 234 230 229 228 227 228 232 236 238 237 234 228 226 225 224 224 221 216 216 214 210 203 197 191 191 195 198 196 194 193 186 180 178 176 174 173 170 166 162 161 159 155 151 147 144 139
223 218 216 216 212 211 213 211 211 214 213 215 222 222 221 223 225 229 233 236 239 233 227 227 222 220 239 241 227 225 234 238 241 243 247 254 257 257 255 252 244 236 233 230 228 228 229 233 235 234 231 225 221 221 218 217 215 212 211 211 207 200 193 189 190 193 193 190 188 187 184 181 180 178 176 175 172 167 165 164 162 161 158 154 153 151
218 208 210 215 212 205 207 208 209 211 210 212 219 220 222 219 216 225 227 230 242 234 225 231 232 226 232 241 235 228 235 241 242 238 240 250 260 262 256 255 253 246 239 233 229 228 227 227 226 226 225 220 218 218 215 212 211 208 206 205 203 199 194 191 191 190 189 187 185 185 186 186 185 183 182 181 178 174 172 171 170 169 165 159 157 154
216 212 207 211 210 203 202 204 205 208 209 213 217 217 217 209 204 217 219 219 231 233 230 232 232 230 232 238 241 238 236 238 241 239 236 242 257 268 266 256 253 252 245 239 233 229 226 223 221 221 220 217 216 216 215 212 209 206 204 203 202 199 196 193 192 191 189 187 185 186 188 189 190 190 188 187 186 184 181 180 180 175 170 167 163 160
211 214 209 206 207 203 201 201 201 203 206 210 212 210 213 213 208 214 216 220 228 230 231 230 230 234 236 239 241 241 242 239 239 240 240 242 248 259 265 254 237 240 241 240 238 232 227 224 223 223 222 220 220 218 216 213 209 206 205 204 203 201 200 199 196 194 194 191 188 189 191 192 194 194 193 193 192 192 190 188 187 184 182 188 190 195
205 211 209 206 205 202 202 205 204 201 203 209 210 211 217 220 220 220 215 222 229 229 228 222 222 232 236 241 241 241 245 243 242 241 239 247 250 250 254 243 222 222 225 230 235 234 231 230 229 228 226 225 224 220 217 215 212 210 208 206 206 205 206 206 204 200 199 197 193 193 194 194 196 197 197 197 195 194 195 193 194 196 199 208 214 220
213 222 213 207 206 202 203 206 205 202 204 208 210 215 220 220 224 232 231 231 234 234 227 217 218 232 239 245 243 242 246 240 237 238 238 252 261 251 242 234 222 219 218 220 228 230 230 232 233 232 230 228 225 220 217 217 216 214 212 210 210 210 211 212 210 208 206 203 201 200 200 199 200 201 202 202 201 201 203 203 204 208 213 218 223 230
217 226 214 206 208 207 205 204 202 203 205 204 208 215 220 219 224 232 234 237 241 239 229 217 218 232 237 244 245 242 245 242 238 241 244 255 266 260 240 231 231 229 223 221 226 227 227 230 233 233 232 232 228 222 218 216 216 217 215 214 214 214 215 216 215 214 212 210 209 209 208 207 207 207 208 209 210 211 213 215 217 220 223 227 232 241
218 227 212 201 207 207 204 202 203 208 209 204 208 214 216 219 228 233 232 229 230 236 234 225 224 231 231 237 242 239 239 241 239 242 245 250 263 268 245 225 230 235 232 227 225 226 225 226 229 231 232 234 231 226 222 218 215 216 216 216 217 218 220 221 220 219 219 218 217 216 215 215 215 214 214 214 214 216 220 222 224 227 231 234 239 250
217 230 219 201 204 203 198 201 206 210 212 211 213 212 209 212 220 224 227 229 225 227 235 232 232 234 232 232 231 226 228 231 231 235 238 237 253 266 243 222 228 234 237 237 227 222 220 219 222 225 229 232 231 228 224 219 216 215 216 217 218 221 223 224 224 224 223 222 222 223 222 222 221 219 218 216 217 220 224 226 228 230 233 237 243 250
210 226 225 201 202 203 199 204 208 207 208 213 218 215 213 217 219 218 221 229 234 232 231 234 234 231 232 235 230 223 222 224 224 229 230 228 244 258 245 231 231 232 238 243 236 228 222 219 219 220 225 230 231 229 224 218 214 213 215 216 217 220 221 222 224 224 224 225 226 228 229 228 227 225 224 222 222 224 226 228 229 231 234 239 244 247
209 218 228 203 195 202 203 205 209 207 202 207 214 215 215 217 219 222 223 224 231 239 235 236 236 229 229 233 232 231 233 234 235 235 234 234 241 250 251 245 237 236 244 247 243 237 228 221 218 217 221 226 230 231 224 217 213 211 212 215 217 220 221 221 223 224 225 227 229 233 235 235 235 233 231 229 228 229 230 230 231 233 236 238 240 242
210 211 223 211 194 204 210 208 210 212 208 206 209 213 215 212 212 221 225 223 227 232 235 240 244 236 232 223 221 230 235 236 239 239 237 239 241 243 247 247 241 243 250 250 246 241 229 221 217 214 216 221 227 230 225 220 216 214 214 215 217 220 222 225 227 228 227 228 231 236 239 242 244 240 236 234 233 232 232 232 234 236 237 238 238 238
212 212 219 220 209 210 215 214 213 215 215 215 214 213 216 215 215 219 221 222 225 228 233 239 242 238 234 222 216 228 229 229 236 239 237 239 240 238 240 242 240 244 253 259 252 239 228 219 213 212 216 220 226 228 225 223 221 220 219 218 218 221 223 227 231 232 232 231 233 239 244 250 251 244 240 239 239 238 236 235 237 239 240 240 239 235
212 215 217 222 225 221 218 217 218 216 215 220 221 217 216 217 219 223 224 224 228 228 228 235 239 232 227 215 207 213 212 221 237 243 240 237 233 231 234 238 239 242 253 260 256 245 230 219 211 212 218 223 225 225 223 223 223 223 222 221 222 224 224 227 232 236 236 235 239 246 254 261 260 253 249 246 241 239 242 241 240 242 245 249 251 246
207 208 209 217 225 221 219 216 213 210 211 219 222 219 219 219 219 224 226 226 232 229 226 231 234 227 224 219 210 207 208 228 252 255 245 239 236 234 234 234 235 241 251 256 255 249 234 221 215 216 220 223 224 222 222 223 224 223 224 224 224 225 224 226 232 238 240 240 244 252 260 266 264 257 252 249 243 241 248 253 249 249 254 258 260 259
205 207 206 213 218 212 213 213 207 206 208 217 222 220 222 221 219 222 223 224 230 228 227 233 234 229 229 231 230 232 236 243 255 263 252 245 248 242 231 228 230 238 249 254 256 249 232 219 214 214 217 220 221 222 223 225 226 225 226 226 224 224 225 226 231 239 242 242 246 254 260 261 259 254 247 244 243 244 251 259 261 270 279 272 265 264
208 215 211 214 221 221 219 216 213 213 214 216 220 221 223 222 222 223 223 226 230 227 229 235 237 236 233 229 230 234 237 239 243 248 253 257 256 241 224 225 234 242 250 257 258 244 224 212 208 210 215 217 218 220 224 227 228 228 228 226 223 224 225 227 233 240 244 247 252 257 259 258 260 262 258 251 245 244 250 258 267 291 316 309 287 282
211 220 215 215 224 228 228 226 222 222 223 223 221 221 222 222 223 226 227 229 230 229 232 234 234 238 236 231 230 229 230 237 240 242 249 255 258 249 239 238 242 246 254 259 251 229 213 208 206 208 212 215 217 219 220 224 227 228 230 228 225 225 226 230 236 241 247 253 253 255 259 260 260 263 266 262 251 242 244 253 264 280 307 323 320 309
218 224 220 219 227 230 232 233 231 230 231 230 228 226 223 222 224 227 230 230 230 233 237 233 230 234 234 233 233 232 232 241 246 246 246 249 255 255 251 249 248 248 253 255 240 217 209 208 204 203 207 212 216 217 215 219 223 226 228 227 224 226 228 233 238 241 247 248 246 250 256 258 256 256 264 268 259 249 249 257 267 279 291 301 309 309
220 227 224 226 235 236 235 236 235 236 236 234 233 233 230 226 226 228 231 232 233 235 239 238 235 235 233 232 234 237 241 246 250 252 249 249 252 249 247 252 254 253 252 251 235 215 209 209 202 201 206 209 213 216 213 217 223 225 227 225 224 227 229 232 235 238 241 240 240 245 251 254 255 257 263 271 270 268 270 274 281 294 301 298 297 302
220 225 220 226 238 240 237 236 236 237 237 236 235 234 234 233 231 229 230 231 233 236 238 238 240 240 235 232 235 239 242 244 247 249 248 248 248 246 249 255 258 259 255 248 237 222 212 206 203 206 210 210 213 217 216 218 223 224 224 224 224 225 226 228 231 233 235 237 239 243 249 254 257 257 261 268 274 279 283 284 285 294 303 303 293 295
222 223 216 222 236 240 236 233 234 236 237 238 235 232 231 233 233 232 231 229 230 232 234 235 238 240 236 234 235 238 239 240 242 244 245 247 247 247 251 253 255 260 255 242 236 228 214 205 208 216 215 211 214 218 219 220 222 221 221 222 223 223 223 225 228 228 231 237 243 247 251 256 260 262 265 270 276 282 284 284 284 287 295 301 300 299
221 221 216 218 232 240 239 233 233 235 237 236 233 230 230 230 232 234 233 232 230 230 231 233 235 237 235 234 235 236 237 238 238 239 241 244 245 244 246 249 253 257 254 243 235 229 216 208 213 220 216 211 212 215 217 219 220 220 221 222 223 223 221 222 224 227 232 239 246 252 255 260 264 268 273 278 282 286 287 287 287 288 292 294 296 298
217 216 215 218 232 241 242 241 240 240 238 235 231 229 229 229 231 232 232 232 230 229 232 235 236 235 232 230 229 230 233 236 237 237 237 238 240 241 242 246 250 252 254 250 240 229 218 212 214 220 217 212 211 213 215 217 217 218 220 221 222 221 220 222 225 229 236 243 249 254 258 262 267 271 276 281 286 291 297 300 297 290 286 286 288 290
212 212 215 220 230 237 240 239 240 239 237 237 236 233 231 230 231 234 235 233 230 230 233 235 236 233 227 223 223 225 229 232 233 234 234 233 236 239 241 245 246 247 252 253 243 227 217 215 219 224 221 214 212 213 214 215 216 217 220 223 224 223 222 224 228 233 240 246 251 256 261 265 268 270 273 278 285 293 300 305 304 294 283 279 279 279
215 215 216 218 223 233 237 232 236 247 245 241 242 240 236 232 232 235 237 235 232 231 232 233 233 232 230 229 228 225 225 228 229 228 227 228 231 235 239 243 244 244 250 254 246 226 215 218 224 227 225 218 214 214 215 216 218 220 222 225 227 227 227 228 234 240 246 251 257 261 265 266 266 267 270 278 289 294 295 300 304 296 276 269 272 278
217 214 215 216 217 225 235 238 248 262 256 246 243 240 234 231 232 234 237 237 234 231 231 231 230 230 231 234 235 232 232 238 239 230 223 223 227 231 236 242 244 245 248 253 250 231 219 221 224 224 221 217 216 217 217 218 221 224 225 227 228 229 230 233 240 247 252 258 263 265 264 262 261 263 271 283 293 295 293 294 292 280 269 275 283 286
213 213 215 216 214 216 236 251 254 261 256 243 234 229 226 228 232 234 239 241 237 231 229 229 230 230 231 235 239 241 241 245 247 237 225 225 229 232 236 241 244 245 247 252 252 239 227 227 229 226 219 214 216 218 218 220 224 227 229 229 230 232 234 239 245 250 255 260 263 262 259 257 260 268 281 293 297 296 292 284 272 270 277 285 290 290
207 212 216 219 220 219 225 234 240 252 257 244 229 233 233 232 232 232 237 240 237 234 231 230 231 233 233 235 239 241 240 242 245 240 231 228 229 233 237 241 243 246 248 251 250 243 236 238 242 234 220 214 216 218 220 221 224 227 229 228 230 234 238 242 248 251 254 257 257 255 255 257 264 276 293 303 303 299 291 280 273 275 281 286 290 290
201 207 211 216 219 218 220 227 239 252 258 263 272 272 265 255 243 234 233 239 238 237 236 235 235 235 232 232 235 236 237 237 238 237 236 233 233 236 239 240 242 244 247 248 246 243 243 247 248 234 218 214 216 219 221 222 224 228 231 230 231 234 237 243 248 249 251 253 253 253 256 261 275 293 304 309 309 304 294 284 279 278 281 285 288 283
195 200 207 211 214 215 218 226 238 252 259 265 277 286 285 276 255 236 233 239 237 233 233 234 235 236 234 232 232 233 235 236 237 239 241 241 242 243 241 240 241 241 241 243 244 244 245 245 241 226 214 211 214 218 221 224 226 229 229 229 231 234 238 243 246 245 248 254 256 262 270 277 290 300 303 306 306 301 293 284 279 278 278 279 280 276
189 191 200 209 213 213 215 224 240 256 263 266 276 286 285 274 252 236 235 238 238 233 230 229 229 232 233 231 230 232 234 237 240 243 246 247 246 243 239 237 239 238 236 239 243 243 240 236 230 222 215 212 214 218 220 221 221 221 222 224 228 234 239 242 242 241 250 263 275 284 287 289 294 298 299 302 302 297 291 284 278 275 273 273 275 272
189 188 197 202 202 202 205 215 231 244 256 267 277 286 282 255 239 240 238 238 240 234 225 222 222 223 226 225 224 226 229 234 239 243 246 246 243 240 237 235 234 233 231 232 231 228 224 219 215 211 208 209 211 214 215 214 211 210 214 221 227 231 234 235 235 241 252 265 280 290 293 294 295 295 295 297 296 290 286 281 273 268 268 271 272 265
197 195 196 196 197 198 199 202 215 229 245 265 276 279 273 246 233 236 238 235 230 218 210 211 212 214 216 216 215 216 220 226 228 227 227 225 222 219 216 211 206 206 208 208 205 202 203 204 203 202 202 204 206 208 210 212 213 216 220 226 232 234 235 236 241 250 256 262 275 289 296 294 290 287 288 289 287 284 280 273 267 265 265 264 260 252
201 201 202 204 208 210 209 211 219 226 242 266 278 276 266 244 233 235 235 224 214 204 199 198 198 198 199 202 206 208 208 206 198 192 193 197 198 196 194 190 188 189 191 192 190 188 189 192 195 197 198 200 202 203 205 208 213 216 219 225 235 246 253 255 256 258 262 269 280 289 292 287 280 278 281 283 283 281 274 267 266 267 261 251 243 242
198 202 211 218 219 216 216 222 224 229 251 267 265 249 229 221 226 228 215 197 190 185 182 180 178 176 177 182 188 189 184 178 172 170 174 179 181 182 183 184 185 185 184 185 184 184 184 186 190 193 195 196 199 203 207 210 213 217 222 228 241 256 264 265 265 268 277 288 292 289 285 279 276 277 280 280 280 276 267 264 269 263 245 234 237 242
201 197 203 216 219 214 210 216 222 236 254 237 188 163 163 163 165 170 167 161 159 158 158 156 153 152 155 160 164 166 164 162 161 160 161 166 169 170 172 175 177 178 178 178 179 182 184 186 189 192 195 198 203 210 216 220 225 231 236 240 247 255 262 267 274 283 294 301 298 287 279 277 276 275 274 273 273 267 259 261 262 247 227 226 236 239
198 192 195 210 212 204 201 208 216 218 197 168 151 143 143 141 139 142 143 141 141 144 145 144 142 143 147 148 151 155 158 159 161 160 158 160 163 165 167 170 171 173 176 178 179 182 184 186 189 195 200 206 214 223 230 235 239 244 247 247 251 259 268 275 282 290 298 302 294 280 273 271 269 266 266 266 263 256 252 253 250 234 221 227 232 228
188 186 194 203 204 203 203 203 204 194 172 157 150 147 146 144 141 141 139 136 136 137 141 142 142 143 146 144 146 153 157 159 162 164 163 162 163 164 166 169 170 171 174 177 181 185 188 193 199 205 211 219 230 239 246 251 256 261 264 265 268 273 276 279 284 290 297 296 284 269 264 262 259 258 260 257 251 247 245 244 239 227 220 223 226 221
184 184 189 192 197 206 204 198 197 190 172 157 151 149 147 145 144 143 142 142 143 142 144 147 147 147 147 143 141 149 156 159 162 165 168 171 172 171 171 173 176 178 181 185 190 194 198 203 209 216 223 232 241 250 259 264 268 271 273 275 277 278 279 281 285 289 292 285 270 259 256 254 254 255 253 248 243 241 238 235 231 226 221 220 220 219
186 184 185 183 188 200 201 196 196 193 180 168 160 152 145 145 147 149 147 145 144 144 148 155 159 161 163 161 157 158 163 163 163 169 176 181 185 187 187 188 189 192 196 201 206 210 213 218 225 233 240 244 249 258 266 270 271 272 273 274 276 279 281 283 284 285 285 276 260 251 250 251 253 250 245 242 242 239 235 232 227 221 215 213 215 217